FENGYUN 1C DEB

Satellite information

Favourite Embed

Satellite Type and Status

DEBRISIN ORBIT

Key statistics

Satellite FENGYUN 1C DEB at a glance.

Uptime

9664

Days in orbit

Revolutions

≈ 14.1

Per day

Orbit

SSO

Sun Synchronous Orbit

Inclination

98.6

Latest

Satellite identification and parameters

Extended collection of information and parameters for FENGYUN 1C DEB.

Object identification

Identified? True

Debris? True

Object name: FENGYUN 1C DEB

International designator: 1999-025ESV

Object number (NORAD): 38510

Object ID (CCSDS): 38510

Country: PEOPLES REPUBLIC OF CHINA (PRC)

Current information (Y/N): Y

RCS size: SMALL

Orbital parameters

Period: 101.917 minutes

Inclination: 98.6067 deg

SMA: 7227.575 km

Apoapsis: 921.567 km

Periapsis: 777.312 km

RAAN: 236.1359 deg

Eccentricy: 0.0099795

Argument of periapsis: 145.0064 deg

Mean anomaly: 215.7721 deg

Mean motion: 14.1290794 rev/day

Mean motion (dot): 0.00000949 rev/day2

B* drag term: 0.00050732 1/REarth

Two-line elements (TLE)

Creation date: Aug. 10, 2025, 5:15 p.m.

Reference frame: TEME

Reference center: EARTH

Epoch: Aug. 10, 2025, 6:59 a.m. UTC

TLE line 0: 0 FENGYUN 1C DEB

TLE line 1: 1 38510U 99025ESV 25222.29165962 .00000949 00000-0 50732-3 0 9997

TLE line 2: 2 38510 98.6067 236.1359 0099795 145.0064 215.7721 14.12907940869121

Live tracking on map

Real-time ground track for satellite FENGYUN 1C DEB.

In-orbit conjunctions

A list of the most updated potential collisions computed for object FENGYUN 1C DEB.

Target Orbit TCA Probability of collision Miss distance Type
COSMOS 1125 LEO 2025-03-23 19:14:23 0.0001086607 427.0 (m) PAYLOAD

Associated space launch

Chinese polar orbiting meteorological satellite

FENGYUN 1C DEB was lifted into orbit during the mission ‘Long March 4B | Feng Yun 1C’, on board a Long March 4B space rocket.

The launch took place on May 10, 1999, 1:33 a.m. from Launch Complex 7.

For more information about the launch, click the button.

Launch to space Long March 4B | Feng Yun 1C
Long March 4B | Feng Yun 1C

Agency: N/A

Status: Launch Successful

Launch date: May 10, 1999, 1:33 a.m. UTC

Rocket: Long March 4B

Launch pad: Launch Complex 7

Location: Taiyuan Satellite Launch Center, People's Republic of China

...

Latest news about this satellite

There are no fresh news available about this satellite. Check back as we update our databases every day.


Newsletter sign-up

Weekly statistics, charts and insights to help you stay on top of the space industry.